NOAA 16 DEB, 41402

Orbit data source: Space-Track

NOAA 16 DEB, 41402 is space debris in SSO originally from a launch on Thu, 21 Sep 2000 UTC launched from the Air Force Western Test Range (AFWTR). Debris objects in space refer to the collection of defunct objects orbiting the Earth. Examples of debris include non-operational satellites, rocket bodies, and fragments generated from explosions, collisions, or faulty payload assembly.

Loading next visibility...
Identifier
41402, 2000-055KF
Orbit
SSO
Country
Flag of USUS
Related business
Manufacturer
Unknown
Mission
Spacecraft
Bus & Motor
Unknown
Mass
Unknown
Launch date (UTC)
2000-09-21 (26 years ago)
Launch vehicle
Unknown
Launch site
Air Force Western Test Range (AFWTR)
Object type
Payload
Rocket body
Debris
Shape & HBR
Unknown shape, 0.1 m
Radar Cross Section
Medium (>0.1 m² and <1 m²)

Expand to show TLE details & history
Last TLE update: 2 days ago

TLE from 2 days ago
0 NOAA 16 DEB
1 41402U 00055KF  26234.33673791  .00002039  00000-0  98921-3 0  9993
2 41402  98.6755 261.8841 0030981  60.8273 299.5997 14.19188265541757
Epoch: 2026-08-22T08:04Z
TLE epoch observation values (Epoch: 2026-08-22T08:04:54.155Z)
Latitude
-0.00001°
Longitude
170.00986°
Altitude
820.037 km
Speed
7.449 km/s
True Right ascension
17h 27m 32s
True Declination
0° 00' 00"
Sunlit
Object was in daylight at epoch
Visualization orbit readout
Latitude
Unknown
Longitude
Unknown
Altitude
Unknown
Speed
Unknown
Apparent Right ascension
Unknown
Apparent Declination
Unknown
Sunlit
N/A
Visualization observer readout
Local Sidereal Time
22:43:36
Azimuth
Unknown
Elevation
Unknown
Doppler factor
Unknown
Orbital elements
Apogee altitude
847.574 km
Perigee altitude
802.94 km
Semi-major axis
7,203.394 km
Eccentricity
0.0031
Inclination
98.6755°
RAAN
261.8841°
Arg. of periapsis
60.8273°
True anomaly
299.29042°
Mean anomaly
299.5997°
Eccentric anomaly
299.44512°
Mean motion
3.55007 °/min
Orbital period
101.41 mins
BSTAR
0.00098921
Loading maneuver chart data...
Computing Atmospheric mass density...
Loading historical data...
Loading historical data...
Loading historical data...
Loading historical data...
Loading historical data...
Loading historical data...
Loading historical data...

Documentation

Showing up to 5 results
|